Home   Weather   Walt Disney World   Past weeks
Flag for USA

Past Weather in Walt Disney World, Florida, USA — April 2018

Now
88 °F

Partly sunny.


Feels Like: 94 °F
Forecast: 88 / 75 °F
Wind: 5 mph from North

Location: Orlando Executive Airport

Current Time: Sep 18, 2019 at 1:59:58 pm

Latest Report: Sep 18, 2019 at 12:53 pm


Visibility: 10 mi

Pressure: 29.99 "Hg

Humidity: 57%

Dew Point: 71 °F

Location of Walt Disney WorldLocation

April 2018 Weather in Walt Disney World — Graph

°F

High & Low Weather Summary for April 2018

 TemperatureHumidityPressure
High90 °F (Apr 9, 1:53 pm)100% (Apr 9, 8:53 am)30.23 "Hg (Apr 9, 8:53 am)
Low54 °F (Apr 18, 5:53 am)18% (Apr 18, 4:53 pm)29.78 "Hg (Apr 7, 6:53 pm)
Average73 °F68%30.05 "Hg
* Reported Apr 1 12:53 am — Apr 30 11:53 pm, Walt Disney World. Weather by CustomWeather, © 2019

Note: Actual official high and low records may vary slightly from our data, if they occured in-between our weather recording intervals... More about our weather records

Advertising

Walt Disney World Weather History for April 1, 2018

Scroll right to see more
 ConditionsComfort  
Time TempWeatherWind HumidityBarometerVisibility
12:53 am
Sun, Apr 1
65 °FPassing clouds.8 mph91%30.16 "Hg10 mi
1:53 am64 °FPassing clouds.5 mph94%30.14 "Hg10 mi
2:53 am64 °FOvercast.3 mph94%30.12 "Hg10 mi
3:05 am64 °FMostly cloudy.6 mph94%30.11 "Hg10 mi
3:53 am64 °FMostly cloudy.6 mph94%30.11 "Hg9 mi
4:23 am64 °FMostly cloudy.8 mph94%30.11 "Hg9 mi
4:53 am64 °FMostly cloudy.7 mph94%30.11 "Hg9 mi
5:05 am64 °FOvercast.7 mph94%30.10 "Hg9 mi
5:15 am64 °FMostly cloudy.6 mph94%30.10 "Hg8 mi
5:53 am64 °FLow clouds.6 mph94%30.11 "Hg8 mi
7:01 am64 °FLow clouds.8 mph94%30.13 "Hg7 mi
7:53 am64 °FFog.8 mph97%30.14 "Hg6 mi
9:00 am65 °FFog.5 mph94%30.15 "Hg6 mi
9:53 am67 °FLow clouds.5 mph87%30.16 "Hg9 mi
10:26 am70 °FScattered clouds.5 mph81%30.16 "Hg10 mi
10:53 am73 °FSunny.6 mph76%30.16 "Hg10 mi
11:53 am77 °FPassing clouds.No wind69%30.14 "Hg10 mi
12:30 pm77 °FScattered clouds.No wind66%30.12 "Hg10 mi
12:53 pm79 °FPartly sunny.No wind62%30.12 "Hg10 mi
1:53 pm80 °FScattered clouds.No wind54%30.10 "Hg10 mi
2:53 pm84 °FPassing clouds.6 mph49%30.07 "Hg10 mi
3:53 pm83 °FMostly cloudy.9 mph50%30.05 "Hg10 mi
4:53 pm81 °FScattered clouds.20 mph60%30.03 "Hg10 mi
5:53 pm78 °FPassing clouds.15 mph64%30.04 "Hg10 mi
6:53 pm76 °FPartly sunny.14 mph69%30.05 "Hg10 mi
7:53 pm73 °FPassing clouds.14 mph76%30.06 "Hg10 mi
8:53 pm69 °FPassing clouds.13 mph87%30.08 "Hg10 mi
9:53 pm69 °FPassing clouds.8 mph90%30.10 "Hg10 mi
10:53 pm69 °FLow clouds.6 mph93%30.11 "Hg10 mi
11:33 pm70 °FLow clouds.5 mph90%30.10 "Hg10 mi
11:53 pm70 °FMostly cloudy.3 mph90%30.11 "Hg10 mi
Weather by CustomWeather, © 2019

See weather overview